| time (UTC) | temp F | wind direction | speed knots | gust knots | rain 1hr in | rain 24hr in | rain mn in | humidity % | barometer mb |
| 20260507023046 | 62 | 0 | 0.0 | 2.6 | 0.00 | 0.00 | 0.00 | 73 | 1017.9 |
| 20260507023003 | 62 | 296 | 0.0 | 2.6 | 0.00 | 0.00 | 0.00 | 74 | 1018.8 |
| 20260507022003 | 63 | 276 | 0.9 | 4.3 | 0.00 | 0.00 | 0.00 | 73 | 1018.9 |
| 20260507021558 | 63 | 310 | 0.9 | 4.3 | 0.00 | 0.00 | 0.00 | 71 | 1018.2 |
| 20260507021003 | 64 | 310 | 0.9 | 4.3 | 0.00 | 0.00 | 0.00 | 71 | 1018.9 |
| 20260507020048 | 64 | 0 | 0.9 | 3.5 | 0.00 | 0.00 | 0.00 | 69 | 1018.1 |
| 20260507020003 | 65 | 322 | 0.9 | 3.5 | 0.00 | 0.00 | 0.00 | 70 | 1019.1 |
| 20260507015004 | 65 | 294 | 0.9 | 5.2 | 0.00 | 0.00 | 0.00 | 68 | 1019.0 |
| 20260507014538 | 65 | 0 | 0.9 | 5.2 | 0.00 | 0.00 | 0.00 | 67 | 1018.2 |
| 20260507014003 | 66 | 292 | 0.9 | 5.2 | 0.00 | 0.00 | 0.00 | 68 | 1019.0 |
| 20260507013056 | 66 | 241 | 1.7 | 7.0 | 0.00 | 0.00 | 0.00 | 66 | 1018.1 |
| 20260507013003 | 67 | 309 | 1.7 | 7.0 | 0.00 | 0.00 | 0.00 | 66 | 1019.0 |
| 20260507012003 | 67 | 295 | 1.7 | 7.8 | 0.00 | 0.00 | 0.00 | 66 | 1018.9 |
| 20260507011541 | 67 | 299 | 1.7 | 7.8 | 0.00 | 0.00 | 0.00 | 65 | 1018.0 |
| 20260507011003 | 68 | 285 | 1.7 | 6.1 | 0.00 | 0.00 | 0.00 | 66 | 1018.9 |
| 20260507010045 | 68 | 314 | 0.9 | 6.1 | 0.00 | 0.00 | 0.00 | 64 | 1017.9 |
| 20260507010004 | 68 | 276 | 1.7 | 5.2 | 0.00 | 0.00 | 0.00 | 65 | 1018.8 |
| 20260507005004 | 69 | 333 | 1.7 | 7.8 | 0.00 | 0.00 | 0.00 | 65 | 1018.8 |
| 20260507004544 | 69 | 360 | 0.9 | 7.8 | 0.00 | 0.00 | 0.00 | 65 | 1018.0 |
| 20260507004004 | 69 | 315 | 2.6 | 7.8 | 0.00 | 0.00 | 0.00 | 65 | 1018.9 |
| 20260507003044 | 70 | 238 | 1.7 | 7.0 | 0.00 | 0.00 | 0.00 | 64 | 1018.1 |
| 20260507003024 | 70 | 297 | 1.7 | 7.0 | 0.00 | 0.00 | 0.00 | 64 | 1018.9 |
| 20260507002003 | 70 | 308 | 1.7 | 6.1 | 0.00 | 0.00 | 0.00 | 64 | 1018.9 |
| 20260507001541 | 70 | 246 | 0.9 | 6.1 | 0.00 | 0.00 | 0.00 | 64 | 1017.9 |
| 20260507001003 | 70 | 285 | 1.7 | 6.1 | 0.00 | 0.00 | 0.00 | 64 | 1018.8 |
| 20260507000053 | 70 | 229 | 0.9 | 7.0 | 0.00 | 0.00 | 0.00 | 63 | 1018.0 |
| 20260507000003 | 71 | 297 | 1.7 | 7.0 | 0.00 | 0.00 | 0.00 | 63 | 1019.0 |
| 20260506235003 | 71 | 307 | 1.7 | 7.0 | 0.00 | 0.00 | 0.00 | 64 | 1018.9 |
| 20260506234553 | 70 | 338 | 1.7 | 6.1 | 0.00 | 0.00 | 0.00 | 63 | 1018.0 |
| 20260506234024 | 71 | 312 | 1.7 | 6.1 | 0.00 | 0.00 | 0.00 | 63 | 1018.8 |
| 20260506233045 | 70 | 298 | 1.7 | 7.0 | 0.00 | 0.00 | 0.00 | 63 | 1018.0 |
| 20260506233004 | 71 | 300 | 1.7 | 7.0 | 0.00 | 0.00 | 0.00 | 64 | 1018.9 |
| 20260506232004 | 71 | 303 | 2.6 | 9.6 | 0.00 | 0.00 | 0.00 | 64 | 1018.9 |
| 20260506231545 | 71 | 226 | 2.6 | 9.6 | 0.00 | 0.00 | 0.00 | 63 | 1018.1 |
| 20260506231003 | 72 | 293 | 2.6 | 7.0 | 0.00 | 0.00 | 0.00 | 63 | 1019.0 |
| 20260506230042 | 71 | 259 | 0.9 | 7.0 | 0.00 | 0.00 | 0.00 | 62 | 1018.1 |
| 20260506230003 | 72 | 303 | 1.7 | 7.0 | 0.00 | 0.00 | 0.00 | 63 | 1018.9 |
| 20260506225003 | 72 | 307 | 2.6 | 7.8 | 0.00 | 0.00 | 0.00 | 62 | 1019.1 |
| 20260506224544 | 72 | 330 | 1.7 | 7.0 | 0.00 | 0.00 | 0.00 | 62 | 1018.3 |
| 20260506224003 | 72 | 298 | 2.6 | 7.8 | 0.00 | 0.00 | 0.00 | 62 | 1019.0 |
| 20260506223044 | 72 | 342 | 2.6 | 8.7 | 0.00 | 0.00 | 0.00 | 61 | 1018.3 |
| 20260506223003 | 73 | 305 | 2.6 | 8.7 | 0.00 | 0.00 | 0.00 | 61 | 1019.2 |
| 20260506222004 | 72 | 321 | 1.7 | 5.2 | 0.00 | 0.00 | 0.00 | 60 | 1019.3 |
| 20260506221545 | 72 | 68 | 1.7 | 5.2 | 0.00 | 0.00 | 0.00 | 59 | 1018.5 |
| 20260506221025 | 72 | 267 | 1.7 | 5.2 | 0.00 | 0.00 | 0.00 | 58 | 1019.4 |
| 20260506220045 | 72 | 0 | 0.9 | 5.2 | 0.00 | 0.00 | 0.00 | 57 | 1018.6 |
| 20260506220004 | 73 | 286 | 1.7 | 4.3 | 0.00 | 0.00 | 0.00 | 57 | 1019.4 |
| 20260506215004 | 73 | 280 | 1.7 | 5.2 | 0.00 | 0.00 | 0.00 | 57 | 1019.5 |
| 20260506214558 | 73 | 0 | 0.9 | 4.3 | 0.00 | 0.00 | 0.00 | 56 | 1018.7 |
| 20260506214003 | 73 | 174 | 0.9 | 3.5 | 0.00 | 0.00 | 0.00 | 58 | 1019.6 |
| 20260506213044 | 72 | 0 | 0.0 | 2.6 | 0.00 | 0.00 | 0.00 | 57 | 1018.8 |
| 20260506213004 | 72 | 193 | 0.9 | 2.6 | 0.00 | 0.00 | 0.00 | 59 | 1019.6 |
| 20260506212003 | 72 | 149 | 0.9 | 4.3 | 0.00 | 0.00 | 0.00 | 56 | 1019.8 |
| 20260506211538 | 72 | 163 | 0.9 | 4.3 | 0.00 | 0.00 | 0.00 | 56 | 1019.0 |
| 20260506211003 | 72 | 289 | 0.9 | 4.3 | 0.00 | 0.00 | 0.00 | 59 | 1019.8 |
| 20260506210040 | 71 | 0 | 0.0 | 6.1 | 0.00 | 0.00 | 0.00 | 58 | 1019.1 |
| 20260506210004 | 71 | 268 | 0.9 | 5.2 | 0.00 | 0.00 | 0.00 | 58 | 1019.9 |
| 20260506205025 | 71 | 263 | 1.7 | 6.1 | 0.00 | 0.00 | 0.00 | 58 | 1020.0 |
| 20260506204544 | 70 | 130 | 0.9 | 4.3 | 0.00 | 0.00 | 0.00 | 59 | 1019.1 |
| 20260506204003 | 71 | 317 | 1.7 | 4.3 | 0.00 | 0.00 | 0.00 | 58 | 1020.2 |
| 20260506203047 | 70 | 359 | 0.0 | 3.5 | 0.00 | 0.00 | 0.00 | 61 | 1019.5 |
| 20260506203003 | 70 | 282 | 0.9 | 3.5 | 0.00 | 0.00 | 0.00 | 61 | 1020.4 |
| 20260506202003 | 70 | 285 | 0.9 | 5.2 | 0.00 | 0.00 | 0.00 | 63 | 1020.4 |
| 20260506201544 | 69 | 271 | 1.7 | 5.2 | 0.00 | 0.00 | 0.00 | 60 | 1019.7 |
| 20260506201003 | 69 | 295 | 1.7 | 5.2 | 0.00 | 0.00 | 0.00 | 61 | 1020.5 |
| 20260506200038 | 68 | 0 | 0.9 | 3.5 | 0.00 | 0.00 | 0.00 | 63 | 1019.7 |
| 20260506200024 | 69 | 278 | 0.9 | 3.5 | 0.00 | 0.00 | 0.00 | 64 | 1020.6 |
| 20260506195003 | 68 | 287 | 1.7 | 5.2 | 0.00 | 0.00 | 0.00 | 64 | 1020.8 |
| 20260506194550 | 67 | 0 | 1.7 | 5.2 | 0.00 | 0.00 | 0.00 | 63 | 1020.0 |
| 20260506194003 | 68 | 315 | 1.7 | 4.3 | 0.00 | 0.00 | 0.00 | 65 | 1020.8 |
| 20260506193037 | 67 | 0 | 0.9 | 5.2 | 0.00 | 0.00 | 0.00 | 66 | 1020.1 |
| 20260506193003 | 67 | 267 | 1.7 | 5.2 | 0.00 | 0.00 | 0.00 | 66 | 1020.9 |
| 20260506192003 | 67 | 307 | 0.9 | 3.5 | 0.00 | 0.00 | 0.00 | 68 | 1021.0 |
| 20260506191542 | 66 | 255 | 0.9 | 3.5 | 0.00 | 0.00 | 0.00 | 67 | 1020.4 |
| 20260506191003 | 66 | 258 | 0.0 | 4.3 | 0.00 | 0.00 | 0.00 | 68 | 1021.2 |
| 20260506190044 | 65 | 276 | 1.7 | 5.2 | 0.00 | 0.00 | 0.00 | 69 | 1020.4 |
| 20260506190003 | 66 | 295 | 1.7 | 5.2 | 0.00 | 0.00 | 0.00 | 69 | 1021.3 |
| 20260506185003 | 66 | 324 | 0.9 | 5.2 | 0.00 | 0.00 | 0.00 | 68 | 1021.4 |
| 20260506184545 | 66 | 0 | 0.0 | 4.3 | 0.00 | 0.00 | 0.00 | 71 | 1020.5 |
| 20260506184024 | 66 | 282 | 0.9 | 4.3 | 0.00 | 0.00 | 0.00 | 68 | 1021.4 |
| 20260506183038 | 65 | 270 | 0.0 | 3.5 | 0.00 | 0.00 | 0.00 | 69 | 1020.5 |
| 20260506183004 | 66 | 331 | 0.9 | 3.5 | 0.00 | 0.00 | 0.00 | 70 | 1021.3 |
| 20260506182003 | 65 | 125 | 0.9 | 3.5 | 0.00 | 0.00 | 0.00 | 70 | 1021.4 |
| 20260506181545 | 64 | 0 | 0.0 | 3.5 | 0.00 | 0.00 | 0.00 | 70 | 1020.5 |
| 20260506181003 | 64 | 191 | 0.9 | 2.6 | 0.00 | 0.00 | 0.00 | 72 | 1021.4 |
| 20260506180051 | 63 | 0 | 0.9 | 5.2 | 0.00 | 0.00 | 0.00 | 70 | 1020.5 |
| 20260506180004 | 64 | 193 | 0.9 | 4.3 | 0.00 | 0.00 | 0.00 | 71 | 1021.3 |
| 20260506175024 | 64 | 221 | 0.9 | 5.2 | 0.00 | 0.00 | 0.00 | 72 | 1021.3 |
| 20260506174545 | 63 | 0 | 0.0 | 3.5 | 0.00 | 0.00 | 0.00 | 73 | 1020.5 |
| 20260506174004 | 63 | 118 | 1.7 | 5.2 | 0.00 | 0.00 | 0.00 | 72 | 1021.4 |
| 20260506173048 | 62 | 144 | 0.0 | 3.5 | 0.00 | 0.00 | 0.00 | 73 | 1020.5 |
| 20260506173003 | 62 | 213 | 0.9 | 3.5 | 0.00 | 0.00 | 0.00 | 74 | 1021.4 |
| 20260506172003 | 62 | 130 | 0.0 | 2.6 | 0.00 | 0.00 | 0.00 | 76 | 1021.4 |
| 20260506171553 | 61 | 0 | 0.0 | 0.0 | 0.00 | 0.00 | 0.00 | 77 | 1020.6 |
| 20260506171003 | 60 | 0 | 0.0 | 0.0 | 0.00 | 0.00 | 0.00 | 76 | 1021.5 |
| 20260506170046 | 59 | 0 | 0.0 | 0.0 | 0.00 | 0.00 | 0.00 | 77 | 1020.8 |
| 20260506170003 | 60 | 0 | 0.0 | 0.0 | 0.00 | 0.00 | 0.00 | 77 | 1021.5 |
| 20260506165003 | 60 | 126 | 0.9 | 2.6 | 0.00 | 0.00 | 0.00 | 78 | 1021.5 |
| 20260506164537 | 59 | 139 | 0.9 | 2.6 | 0.00 | 0.00 | 0.00 | 79 | 1020.7 |
| 20260506164024 | 59 | 170 | 0.9 | 1.7 | 0.00 | 0.00 | 0.00 | 81 | 1021.6 |
| 20260506163048 | 58 | 0 | 0.0 | 0.0 | 0.00 | 0.00 | 0.00 | 80 | 1020.6 |
| 20260506163003 | 59 | 0 | 0.0 | 0.0 | 0.00 | 0.00 | 0.00 | 80 | 1021.5 |
| 20260506162003 | 58 | 0 | 0.0 | 0.0 | 0.00 | 0.00 | 0.00 | 82 | 1021.5 |
| 20260506161546 | 58 | 0 | 0.0 | 0.0 | 0.00 | 0.00 | 0.00 | 82 | 1020.7 |
| 20260506161003 | 58 | 0 | 0.0 | 0.0 | 0.00 | 0.00 | 0.00 | 83 | 1021.7 |
| 20260506160045 | 57 | 0 | 0.0 | 0.0 | 0.00 | 0.00 | 0.00 | 84 | 1020.7 |
| 20260506160003 | 58 | 0 | 0.0 | 0.0 | 0.00 | 0.00 | 0.00 | 85 | 1021.5 |
| 20260506155003 | 57 | 0 | 0.0 | 0.0 | 0.00 | 0.00 | 0.00 | 85 | 1021.5 |
| 20260506154607 | 57 | 0 | 0.0 | 0.0 | 0.00 | 0.00 | 0.00 | 85 | 1020.6 |
| 20260506154003 | 57 | 0 | 0.0 | 0.0 | 0.00 | 0.00 | 0.00 | 85 | 1021.5 |
| 20260506153038 | 56 | 0 | 0.0 | 0.0 | 0.00 | 0.00 | 0.00 | 86 | 1020.6 |
| 20260506153003 | 57 | 0 | 0.0 | 0.0 | 0.00 | 0.00 | 0.00 | 86 | 1021.5 |
| 20260506152003 | 56 | 0 | 0.0 | 0.0 | 0.00 | 0.00 | 0.00 | 87 | 1021.4 |
| 20260506151545 | 55 | 0 | 0.0 | 0.0 | 0.00 | 0.00 | 0.00 | 87 | 1020.6 |
| 20260506151003 | 56 | 0 | 0.0 | 0.0 | 0.00 | 0.00 | 0.00 | 88 | 1021.4 |
| 20260506150038 | 55 | 0 | 0.0 | 0.0 | 0.00 | 0.00 | 0.00 | 88 | 1020.6 |
| 20260506150003 | 56 | 0 | 0.0 | 0.0 | 0.00 | 0.00 | 0.00 | 89 | 1021.4 |
| 20260506145024 | 55 | 0 | 0.0 | 0.0 | 0.00 | 0.00 | 0.00 | 90 | 1021.3 |
| 20260506144555 | 55 | 0 | 0.0 | 0.0 | 0.00 | 0.00 | 0.00 | 89 | 1020.5 |
| 20260506144024 | 55 | 0 | 0.0 | 0.0 | 0.00 | 0.00 | 0.00 | 90 | 1021.3 |
| 20260506143041 | 54 | 0 | 0.0 | 0.0 | 0.00 | 0.00 | 0.00 | 90 | 1020.6 |
| 20260506143003 | 54 | 0 | 0.0 | 0.0 | 0.00 | 0.00 | 0.00 | 90 | 1021.3 |
| 20260506142024 | 54 | 0 | 0.0 | 0.0 | 0.00 | 0.00 | 0.00 | 91 | 1021.3 |
| 20260506141542 | 54 | 0 | 0.0 | 0.0 | 0.00 | 0.00 | 0.00 | 91 | 1020.4 |
| 20260506141003 | 54 | 0 | 0.0 | 0.0 | 0.00 | 0.00 | 0.00 | 91 | 1021.2 |
| 20260506140054 | 53 | 0 | 0.0 | 0.0 | 0.00 | 0.00 | 0.00 | 91 | 1020.2 |
| 20260506140003 | 54 | 0 | 0.0 | 0.0 | 0.00 | 0.00 | 0.00 | 91 | 1021.1 |
| 20260506135003 | 53 | 0 | 0.0 | 0.0 | 0.00 | 0.00 | 0.00 | 92 | 1021.0 |
| 20260506134544 | 53 | 0 | 0.0 | 0.0 | 0.00 | 0.00 | 0.00 | 91 | 1020.0 |
| 20260506134003 | 53 | 0 | 0.0 | 0.0 | 0.00 | 0.00 | 0.00 | 92 | 1020.8 |
| 20260506133049 | 52 | 0 | 0.0 | 0.0 | 0.00 | 0.00 | 0.00 | 92 | 1019.8 |
| 20260506133003 | 53 | 0 | 0.0 | 0.0 | 0.00 | 0.00 | 0.00 | 92 | 1020.7 |
| 20260506132003 | 53 | 0 | 0.0 | 0.0 | 0.00 | 0.00 | 0.00 | 92 | 1020.6 |
| 20260506131543 | 52 | 0 | 0.0 | 0.0 | 0.00 | 0.00 | 0.00 | 92 | 1019.7 |
| 20260506131003 | 52 | 0 | 0.0 | 0.0 | 0.00 | 0.00 | 0.00 | 93 | 1020.6 |
| 20260506130046 | 52 | 0 | 0.0 | 0.0 | 0.00 | 0.00 | 0.00 | 92 | 1019.8 |
| 20260506130004 | 52 | 0 | 0.0 | 0.0 | 0.00 | 0.00 | 0.00 | 93 | 1020.5 |
| 20260506125003 | 52 | 0 | 0.0 | 0.0 | 0.00 | 0.00 | 0.00 | 93 | 1020.5 |
| 20260506124545 | 51 | 0 | 0.0 | 0.0 | 0.00 | 0.00 | 0.00 | 92 | 1019.6 |
| 20260506124003 | 51 | 0 | 0.0 | 0.0 | 0.00 | 0.00 | 0.00 | 92 | 1020.5 |
| 20260506123041 | 51 | 0 | 0.0 | 0.0 | 0.00 | 0.00 | 0.00 | 92 | 1019.6 |
| 20260506123003 | 51 | 0 | 0.0 | 0.0 | 0.00 | 0.00 | 0.00 | 92 | 1020.5 |
| 20260506122003 | 51 | 0 | 0.0 | 0.0 | 0.00 | 0.00 | 0.00 | 92 | 1020.4 |
| 20260506121538 | 50 | 0 | 0.0 | 0.0 | 0.00 | 0.00 | 0.00 | 92 | 1019.6 |
| 20260506121003 | 50 | 0 | 0.0 | 0.0 | 0.00 | 0.00 | 0.00 | 92 | 1020.4 |
| 20260506120049 | 49 | 0 | 0.0 | 0.0 | 0.00 | 0.00 | 0.00 | 91 | 1019.5 |
| 20260506120004 | 50 | 0 | 0.0 | 0.0 | 0.00 | 0.00 | 0.00 | 91 | 1020.3 |
| 20260506115024 | 50 | 0 | 0.0 | 0.0 | 0.00 | 0.00 | 0.00 | 91 | 1020.2 |
| 20260506114548 | 50 | 0 | 0.0 | 0.0 | 0.00 | 0.01 | 0.00 | 91 | 1019.5 |
| 20260506114003 | 50 | 0 | 0.0 | 0.0 | 0.00 | 0.01 | 0.00 | 91 | 1020.2 |
| 20260506113049 | 50 | 0 | 0.0 | 0.0 | 0.00 | 0.01 | 0.00 | 90 | 1019.3 |
| 20260506113003 | 50 | 0 | 0.0 | 0.0 | 0.00 | 0.01 | 0.00 | 90 | 1020.2 |
| 20260506112024 | 51 | 0 | 0.0 | 0.0 | 0.00 | 0.01 | 0.00 | 90 | 1020.2 |
| 20260506111543 | 50 | 0 | 0.0 | 0.0 | 0.00 | 0.01 | 0.00 | 90 | 1019.4 |
| 20260506111003 | 51 | 0 | 0.0 | 0.0 | 0.00 | 0.01 | 0.00 | 90 | 1020.2 |
| 20260506110039 | 51 | 0 | 0.0 | 0.0 | 0.00 | 0.01 | 0.00 | 89 | 1019.2 |
| 20260506110003 | 51 | 0 | 0.0 | 0.0 | 0.00 | 0.01 | 0.00 | 90 | 1020.0 |
| 20260506105003 | 52 | 0 | 0.0 | 0.0 | 0.00 | 0.01 | 0.00 | 89 | 1019.9 |
| 20260506104545 | 51 | 0 | 0.0 | 0.0 | 0.00 | 0.02 | 0.00 | 88 | 1019.1 |
| 20260506104003 | 52 | 0 | 0.0 | 0.0 | 0.00 | 0.01 | 0.00 | 89 | 1019.8 |
| 20260506103044 | 52 | 0 | 0.0 | 0.0 | 0.00 | 0.02 | 0.00 | 88 | 1019.1 |
| 20260506103003 | 53 | 0 | 0.0 | 0.0 | 0.00 | 0.01 | 0.00 | 88 | 1019.9 |
| 20260506102003 | 53 | 0 | 0.0 | 0.0 | 0.00 | 0.02 | 0.00 | 88 | 1019.8 |
| 20260506101550 | 53 | 0 | 0.0 | 0.0 | 0.00 | 0.02 | 0.00 | 87 | 1018.9 |
| 20260506101003 | 54 | 0 | 0.0 | 0.0 | 0.00 | 0.02 | 0.00 | 87 | 1019.8 |
| 20260506100043 | 54 | 0 | 0.0 | 0.0 | 0.00 | 0.02 | 0.00 | 87 | 1019.0 |
| 20260506100024 | 54 | 0 | 0.0 | 0.0 | 0.00 | 0.02 | 0.00 | 87 | 1019.8 |
| 20260506095024 | 55 | 0 | 0.0 | 0.0 | 0.00 | 0.02 | 0.00 | 87 | 1019.8 |
| 20260506094544 | 55 | 0 | 0.0 | 0.0 | 0.00 | 0.02 | 0.00 | 86 | 1019.0 |
| 20260506094003 | 55 | 0 | 0.0 | 0.0 | 0.00 | 0.02 | 0.00 | 87 | 1019.8 |
| 20260506093041 | 55 | 0 | 0.0 | 0.0 | 0.00 | 0.02 | 0.00 | 86 | 1019.0 |
| 20260506093003 | 56 | 0 | 0.0 | 0.0 | 0.00 | 0.02 | 0.00 | 86 | 1019.8 |
| 20260506092024 | 56 | 0 | 0.0 | 0.0 | 0.00 | 0.02 | 0.00 | 86 | 1019.7 |
| 20260506091537 | 55 | 0 | 0.0 | 0.0 | 0.00 | 0.02 | 0.00 | 86 | 1018.8 |
| 20260506091003 | 56 | 0 | 0.0 | 0.0 | 0.00 | 0.02 | 0.00 | 86 | 1019.7 |
| 20260506090043 | 55 | 0 | 0.0 | 0.0 | 0.00 | 0.02 | 0.00 | 86 | 1018.8 |
| 20260506090003 | 56 | 0 | 0.0 | 0.0 | 0.00 | 0.02 | 0.00 | 86 | 1019.7 |
| 20260506085003 | 56 | 0 | 0.0 | 0.0 | 0.00 | 0.02 | 0.00 | 86 | 1019.7 |
| 20260506084545 | 55 | 0 | 0.0 | 0.0 | 0.00 | 0.02 | 0.00 | 86 | 1018.8 |
| 20260506084003 | 56 | 0 | 0.0 | 0.0 | 0.00 | 0.02 | 0.00 | 86 | 1019.7 |
| 20260506083044 | 55 | 0 | 0.0 | 0.0 | 0.00 | 0.02 | 0.00 | 86 | 1018.9 |
| 20260506083025 | 56 | 0 | 0.0 | 0.0 | 0.00 | 0.02 | 0.00 | 86 | 1019.7 |
| 20260506082004 | 56 | 0 | 0.0 | 0.0 | 0.00 | 0.02 | 0.00 | 86 | 1019.8 |
| 20260506081543 | 55 | 0 | 0.0 | 0.0 | 0.00 | 0.02 | 0.00 | 85 | 1018.9 |
| 20260506081003 | 56 | 0 | 0.0 | 0.0 | 0.00 | 0.02 | 0.00 | 86 | 1019.7 |
| 20260506073040 | 55 | 0 | 0.0 | 0.0 | 0.00 | 0.02 | 0.00 | 84 | 1018.7 |
| 20260506073003 | 56 | 0 | 0.0 | 0.0 | 0.00 | 0.02 | 0.00 | 85 | 1019.5 |
| 20260506072003 | 56 | 0 | 0.0 | 0.0 | 0.00 | 0.02 | 0.00 | 84 | 1019.6 |
| 20260506071544 | 55 | 0 | 0.0 | 0.0 | 0.00 | 0.02 | 0.00 | 84 | 1018.6 |
| 20260506071003 | 56 | 0 | 0.0 | 0.0 | 0.00 | 0.02 | 0.00 | 84 | 1019.4 |
| 20260506062003 | 56 | 0 | 0.0 | 0.0 | 0.00 | 0.02 | 0.02 | 83 | 1019.2 |
| 20260506061537 | 55 | 0 | 0.0 | 0.0 | 0.00 | 0.02 | 0.02 | 82 | 1018.2 |
| 20260506061003 | 56 | 0 | 0.0 | 0.0 | 0.00 | 0.02 | 0.02 | 83 | 1019.1 |
| 20260506051003 | 56 | 0 | 0.0 | 0.0 | 0.00 | 0.02 | 0.02 | 82 | 1018.7 |
| 20260506045003 | 56 | 0 | 0.0 | 0.0 | 0.00 | 0.02 | 0.02 | 82 | 1018.5 |
| 20260506044539 | 56 | 0 | 0.0 | 0.0 | 0.00 | 0.02 | 0.02 | 81 | 1017.5 |
| 20260506044003 | 56 | 0 | 0.0 | 0.0 | 0.00 | 0.02 | 0.02 | 82 | 1018.3 |
| 20260506043043 | 56 | 0 | 0.0 | 0.0 | 0.00 | 0.02 | 0.02 | 81 | 1017.5 |
| 20260506043003 | 56 | 0 | 0.0 | 0.0 | 0.00 | 0.02 | 0.02 | 82 | 1018.3 |
| 20260506042003 | 57 | 0 | 0.0 | 0.0 | 0.00 | 0.02 | 0.02 | 81 | 1018.2 |
| 20260506041545 | 56 | 0 | 0.0 | 0.0 | 0.00 | 0.02 | 0.02 | 81 | 1017.4 |
| 20260506041003 | 57 | 0 | 0.0 | 0.0 | 0.00 | 0.02 | 0.02 | 81 | 1018.1 |
| 20260506040047 | 56 | 0 | 0.0 | 0.0 | 0.00 | 0.02 | 0.02 | 80 | 1017.1 |
| 20260506040003 | 57 | 0 | 0.0 | 0.0 | 0.00 | 0.02 | 0.02 | 81 | 1017.9 |
| 20260506035004 | 57 | 343 | 0.9 | 4.3 | 0.00 | 0.02 | 0.02 | 80 | 1017.9 |
| 20260506034539 | 56 | 0 | 0.0 | 5.2 | 0.00 | 0.02 | 0.02 | 80 | 1017.0 |
| 20260506034003 | 57 | 352 | 0.9 | 5.2 | 0.00 | 0.02 | 0.02 | 80 | 1017.7 |
| 20260506033041 | 57 | 0 | 1.7 | 5.2 | 0.00 | 0.02 | 0.02 | 79 | 1016.6 |
| 20260506033004 | 57 | 340 | 1.7 | 5.2 | 0.00 | 0.02 | 0.02 | 80 | 1017.5 |
| 20260506032003 | 57 | 336 | 0.0 | 3.5 | 0.00 | 0.02 | 0.02 | 79 | 1017.5 |
| 20260506031544 | 57 | 0 | 0.9 | 3.5 | 0.00 | 0.02 | 0.02 | 79 | 1016.5 |
| 20260506031003 | 57 | 297 | 0.0 | 1.7 | 0.00 | 0.02 | 0.02 | 79 | 1017.4 |
| 20260506030044 | 57 | 0 | 0.9 | 3.5 | 0.00 | 0.02 | 0.02 | 79 | 1016.4 |
| 20260506030003 | 58 | 320 | 0.9 | 3.5 | 0.00 | 0.02 | 0.02 | 79 | 1017.3 |
| 20260506025003 | 58 | 315 | 1.7 | 4.3 | 0.00 | 0.02 | 0.02 | 78 | 1017.1 |
| 20260506024545 | 58 | 0 | 0.9 | 4.3 | 0.00 | 0.02 | 0.02 | 77 | 1016.2 |
| 20260506024003 | 59 | 329 | 1.7 | 4.3 | 0.00 | 0.02 | 0.02 | 77 | 1017.0 |